Change the Weather History Date:

Monday, December 3, 2012

  Actual Average Record
Temperature  
Mean Temperature 68 °F -  
Max Temperature 79 °F 52 °F 79 °F (2012)
Min Temperature 57 °F 31 °F 16 °F (2006)
Cooling Degree Days 3    
Growing Degree Days 18 (Base 50)    
Moisture  
Dew Point 53 °F    
Average Humidity 60    
Maximum Humidity 78    
Minimum Humidity 32    
Precipitation  
Precipitation 0.00 in - - ()
Sea Level Pressure  
Sea Level Pressure 29.82 in    
Wind  
Wind Speed 19 mph (SSW)    
Max Wind Speed 29 mph    
Max Gust Speed 39 mph    
Visibility 10 miles    
Events      
Averages and records for this station are not official NWS values.
T = Trace of Precipitation, MM = Missing Value Source: NWS Daily Summary

Daily Weather History Graph

Daily Weather History Graph

Search for Another Location

Airport or City:

Trip Planner

Search our weather history database for the weather conditions in past years. The results will help you decide how hot, cold, wet, or windy it might be!

Date:

Astronomy

Dec. 03, 2012 Rise Set
Actual Time 7:23 AM CST 5:13 PM CST
Civil Twilight 6:54 AM CST 5:41 PM CST
Nautical Twilight 6:22 AM CST 6:13 PM CST
Astronomical Twilight 5:51 AM CST 6:44 PM CST
Moon 9:56 PM CST (12/3) 10:51 AM CST (12/3)
Length of Visible Light 10h 47m
Length of Day
9h 50m
Waning Gibbous, 78% of the Moon is Illuminated
Dec 3
Waning Gibbous
Dec 6
Last Quarter
Dec 13
New
Dec 19
First Quarter
Dec 28
Full

Hourly Weather History & Observations

Time (CST) Temp. Dew Point Humidity Pressure Visibility Wind Dir Wind Speed Gust Speed Precip Events Conditions
12:53 AM 68.0 °F 57.9 °F 70% 29.83 in 10.0 mi South 15.0 mph 21.9 mph N/A   Clear
1:53 AM 66.9 °F 57.9 °F 73% 29.82 in 10.0 mi South 15.0 mph - N/A   Clear
2:53 AM 66.9 °F 57.9 °F 73% 29.81 in 10.0 mi South 17.3 mph - N/A   Clear
3:53 AM 66.9 °F 57.9 °F 73% 29.78 in 10.0 mi South 21.9 mph 29.9 mph N/A   Clear
4:53 AM 66.9 °F 57.9 °F 73% 29.76 in 10.0 mi South 24.2 mph 32.2 mph N/A   Clear
5:53 AM 66.0 °F 59.0 °F 78% 29.76 in 10.0 mi SSW 19.6 mph 29.9 mph N/A   Clear
6:53 AM 66.9 °F 59.0 °F 76% 29.78 in 10.0 mi SSW 23.0 mph 39.1 mph N/A   Scattered Clouds
7:05 AM 66.2 °F 59.0 °F 78% 29.80 in 10.0 mi SSW 20.7 mph 33.4 mph N/A   Mostly Cloudy
7:53 AM 66.9 °F 59.0 °F 76% 29.78 in 10.0 mi South 20.7 mph 32.2 mph N/A   Mostly Cloudy
8:07 AM 66.2 °F 59.0 °F 78% 29.81 in 10.0 mi South 23.0 mph 31.1 mph N/A   Scattered Clouds
8:15 AM 66.2 °F 59.0 °F 78% 29.81 in 10.0 mi SSW 24.2 mph 33.4 mph N/A   Mostly Cloudy
9:53 AM 70.0 °F 59.0 °F 68% 29.81 in 10.0 mi SSW 19.6 mph 26.5 mph N/A   Mostly Cloudy
10:04 AM 71.6 °F 59.0 °F 64% 29.83 in 10.0 mi SSW 20.7 mph 29.9 mph N/A   Scattered Clouds
10:53 AM 73.0 °F 57.0 °F 57% 29.80 in 10.0 mi South 27.6 mph 38.0 mph N/A   Mostly Cloudy
11:19 AM 71.6 °F 57.2 °F 60% 29.83 in 10.0 mi SSW 23.0 mph 38.0 mph N/A   Scattered Clouds
11:53 AM 75.0 °F 55.9 °F 51% 29.78 in 10.0 mi South 28.8 mph 35.7 mph N/A   Scattered Clouds
12:53 PM 77.0 °F 54.0 °F 45% 29.74 in 10.0 mi SSW 20.7 mph 36.8 mph N/A   Clear
1:53 PM 78.1 °F 53.1 °F 42% 29.73 in 10.0 mi SSW 24.2 mph 32.2 mph N/A   Clear
2:53 PM 79.0 °F 53.1 °F 40% 29.74 in 10.0 mi SW 23.0 mph 34.5 mph N/A   Clear
3:53 PM 78.1 °F 53.1 °F 42% 29.76 in 10.0 mi SSW 16.1 mph 26.5 mph N/A   Clear
4:53 PM 77.0 °F 52.0 °F 42% 29.78 in 10.0 mi SW 11.5 mph 19.6 mph N/A   Partly Cloudy
5:53 PM 71.1 °F 39.9 °F 32% 29.82 in 10.0 mi NNW 9.2 mph - N/A   Scattered Clouds
6:53 PM 63.0 °F 37.0 °F 38% 29.86 in 10.0 mi North 15.0 mph 24.2 mph N/A   Clear
7:53 PM 60.1 °F 37.0 °F 42% 29.91 in 10.0 mi North 10.4 mph - N/A   Clear
8:53 PM 59.0 °F 39.9 °F 49% 29.94 in 10.0 mi North 16.1 mph - N/A   Overcast
9:53 PM 57.0 °F 41.0 °F 55% 29.96 in 10.0 mi North 12.7 mph - N/A   Clear
10:53 PM 57.0 °F 41.0 °F 55% 29.99 in 10.0 mi North 11.5 mph - N/A   Clear